Location: Sternwarte Stuttgart
(48.7670°N, 9.1830°E)
Time: 22:32:43
(UTC+02:00)

Daily predictions for brighter satellites

Satellite Brightness Start Highest point End
(mag) Time Altitude Azimuth Time Altitude Azimuth Time Altitude Azimuth
BREEZE-M DEB (TANK) 3.9 20:13:58 10° SSW 20:16:46 34° SE 20:23:31 10° ENE
Intercosmos 24 Rocket 4.4 20:15:00 10° S 20:19:36 72° E 20:23:15 10° NNE
Envisat 4.0 20:15:37 10° ESE 20:19:51 28° ENE 20:24:07 10° N
SeaSat 1 2.5 20:15:01 10° SE 20:19:57 82° ENE 20:24:55 10° NNW
Cosmos 1867 3.7 20:15:25 10° SSW 20:20:45 58° ESE 20:26:08 10° NE
Cosmos 482 Debris 3.3 20:21:02 10° WNW 20:22:54 41° SSW 20:24:38 10° SE
Timation 1 Rocket 4.4 20:17:52 10° SSW 20:23:50 71° ESE 20:29:50 10° NNE
Cosmos 1340 Rocket 3.3 20:20:19 10° N 20:24:08 39° ENE 20:27:53 10° SE
Helios 1A 3.7 20:21:35 10° SE 20:25:24 36° ENE 20:29:16 10° N
SJ-6B 3.5 20:23:08 10° S 20:26:49 55° W 20:30:32 10° NNW
ERS-1 Rocket 4.5 20:23:59 10° ESE 20:27:31 20° ENE 20:31:03 10° NNE
Cosmos 1048 Rocket 4.3 20:24:26 10° NNW 20:29:33 72° WSW 20:34:39 10° SSE
Cosmos 1125 Rocket 3.5 20:26:11 10° SSW 20:31:21 73° ESE 20:36:36 10° NNE
Cosmos 1184 Rocket 3.9 20:28:54 10° N 20:31:52 27° ENE 20:34:47 10° SE
Cosmos 1356 Rocket 4.5 20:28:32 10° N 20:32:02 26° ENE 20:35:28 10° SE
Okean 3 Rocket 4.4 20:29:55 10° NNW 20:34:14 55° W 20:38:33 10° S
BREEZE-M DEB (TANK) 4.4 20:31:20 10° S 20:34:37 25° SE 20:42:23 10° ENE
Meteor 1-4 Rocket 2.4 20:33:28 10° S 20:36:57 88° E 20:40:28 10° NNE
Cosmos 1674 2.6 20:34:08 10° N 20:37:56 79° ENE 20:41:45 10° SSE
Cosmos 389 Rocket 4.3 20:37:17 11° ESE 20:39:01 14° E 20:40:57 10° NE
Cosmos 1271 Rocket 3.1 20:37:48 10° S 20:41:39 46° E 20:45:31 10° NNE
SL-14 R/B 4.2 20:39:00 10° N 20:42:25 29° ENE 20:45:45 11° SE
CZ-4B DEB 3.6 20:39:46 10° SE 20:42:32 31° ENE 20:45:20 10° N
Cosmos 2369 Rocket 3.6 20:39:48 10° SE 20:42:55 15° E 20:46:01 10° ENE
FENGYUN 3A 4.3 20:38:13 10° S 20:43:33 60° W 20:48:54 10° NNW
H-2A R/B 4.1 20:47:10 10° ENE 20:48:37 11° NE 20:50:03 10° NE
Cosmos-2242 3.0 20:44:35 10° S 20:48:46 58° E 20:52:59 10° NNE
Cosmos 2016 Rocket 4.4 20:43:33 10° SSE 20:49:11 39° E 20:54:48 10° NNE
Cosmos 1833 Rocket 3.4 20:43:54 10° NW 20:49:23 55° WSW 20:54:51 10° S
Cosmos 1766 Rocket 3.8 20:46:18 10° NNW 20:50:48 77° W 20:55:16 10° S
ISS -3.5 20:49:43 10° SW 20:52:51 45° SSE 20:55:19 15° E
Cosmos 1328 4.2 20:49:45 10° N 20:53:34 43° ENE 20:57:14 11° SSE
Cosmos 1544 4.3 20:50:08 10° SSW 20:53:41 47° WNW 20:57:17 10° N
Cosmos 1626 3.9 20:53:33 10° NNE 20:55:53 16° ENE 20:56:48 15° E
Lacrosse 5 2.7 20:51:08 10° W 20:56:04 49° NNW 21:01:00 10° NE
Cosmos 1758 4.2 20:54:40 10° SSW 20:58:35 54° WNW 21:02:33 10° N
ATLAS 5 CENTAUR R/B 1.8 20:56:56 10° SSW 21:01:41 76° SE 21:06:56 10° NE
CZ-4C R/B 3.4 20:58:40 10° SSE 21:02:20 19° ESE 21:06:16 10° ENE
Cosmos 1953 3.3 20:59:35 10° SSW 21:03:34 52° WNW 21:07:32 10° N
Cosmos 2058 3.7 21:02:13 10° N 21:06:01 33° ENE 21:08:09 20° ESE
SPOT 5 4.3 21:03:50 17° E 21:06:31 24° ENE 21:10:39 10° N
Cosmos 2221 3.9 21:06:10 18° E 21:06:44 19° E 21:09:49 10° NE
Cosmos 2278 Rocket 3.8 21:02:01 10° WSW 21:07:18 38° NW 21:12:37 10° NNE
GP-B 3.1 21:03:20 10° S 21:07:47 84° W 21:12:16 10° N
Cosmos 2100 Rocket 4.0 21:04:09 10° S 21:10:29 80° E 21:16:54 10° N
Cosmos 372 Rocket 4.3 21:06:03 10° SSW 21:11:10 71° WNW 21:16:22 10° NNE
Cosmos 1703 4.4 21:08:41 10° NNE 21:12:01 26° ENE 21:13:05 23° E
ALOS 4.4 21:09:56 10° SSW 21:13:57 28° W 21:18:00 10° NW
Cosmos 2251 Rocket 3.6 21:11:31 10° NNW 21:16:54 87° WSW 21:21:54 12° SSE
Lacrosse 5 rocket 3.4 21:16:58 10° WNW 21:19:54 20° SW 21:22:43 10° S
Cosmos 1939 Rocket 2.9 21:16:41 16° SSE 21:20:00 70° ENE 21:24:09 10° N
Resurs 01 Rocket 3.3 21:16:06 10° SSW 21:20:08 34° W 21:24:13 10° NNW
USA 267 3.9 21:14:50 13° E 21:20:23 48° NNE 21:26:36 10° WNW
Tsikada Rocket 4.1 21:15:17 10° N 21:21:24 56° ENE 21:26:22 16° SSE
Cosmos 1743 Rocket 3.7 21:17:13 10° NNW 21:21:40 76° W 21:26:07 10° S
Cosmos 1500 Rocket 3.4 21:17:39 10° N 21:22:01 81° E 21:25:46 13° SSE
Meteor 1-29 2.8 21:21:07 10° NNE 21:24:36 69° ESE 21:28:04 10° S
H-2A R/B 4.1 21:25:03 12° ENE 21:25:18 12° NE 21:26:48 10° NE
Cosmos 1805 Rocket 4.5 21:22:02 10° N 21:25:59 31° ENE 21:27:03 27° E
CZ-3B DEB 2.9 21:19:15 10° W 21:27:38 53° NNW 21:31:19 12° NE
Helios 1B rocket 2.4 21:23:45 10° NNE 21:27:54 89° ESE 21:32:01 10° SSW
Cosmos 2151 2.8 21:27:35 10° N 21:31:52 76° E 21:34:25 23° SSE
Cosmos 1733 4.2 21:28:39 10° SSW 21:32:25 49° WNW 21:36:14 10° N
Cosmos 2082 Rocket 4.4 21:28:40 10° NW 21:33:06 24° WSW 21:37:31 10° SSW
ARGOS 3.9 21:31:27 26° ESE 21:33:27 34° ENE 21:38:15 10° N
Cosmos 494 Rocket 4.4 21:31:14 10° NNW 21:36:16 60° WSW 21:40:44 13° S
Cosmos 1802 Rocket 4.0 21:30:21 10° S 21:36:30 84° W 21:42:46 10° N
USA 186 4.1 21:42:13 10° SW 21:43:26 13° W 21:44:39 10° WNW
Cosmos 1470 4.4 21:40:01 10° SW 21:43:42 37° WNW 21:47:25 10° N
Cosmos 1816 Rocket 4.4 21:40:07 10° N 21:46:19 71° ENE 21:50:14 24° SSE
Meteor 1-16 Rocket 4.4 21:46:44 10° SSW 21:52:39 83° WNW 21:58:38 10° N
YAOGAN 6 2.6 21:54:26 49° S 21:55:22 83° WSW 21:59:07 10° NNW
Envisat 3.9 21:53:46 10° S 21:58:39 47° W 22:03:35 10° NNW
Cosmos 1842 Rocket 4.2 21:56:22 10° SSW 22:00:42 56° WNW 22:05:02 10° N
Cosmos 2233 Rocket 4.0 21:58:37 29° SSE 22:01:44 59° E 22:07:45 10° NNE
ERS-1 Rocket 3.1 22:03:10 29° S 22:05:47 72° WSW 22:10:51 10° NNW
Geosat 4.3 22:01:20 10° NNE 22:06:20 69° NW 22:11:20 10° SW
Cosmos 2297 Rocket 4.3 22:08:49 10° N 22:11:44 14° NNE 22:14:00 11° ENE
Cosmos 389 Rocket 3.7 22:11:11 17° SW 22:13:31 42° WNW 22:16:55 10° N
BREEZE-M DEB (TANK) 3.9 22:11:36 10° W 22:12:59 26° WSW 22:12:59 26° WSW
MetOp-B 4.1 22:16:35 44° S 22:18:21 85° WSW 22:23:45 10° NNW
Cosmos 1190 Rocket 4.3 22:17:56 10° NNW 22:23:06 48° ENE 22:23:27 48° ENE
SL-08 RB Rocket 3.7 22:24:06 69° E 22:24:10 69° ENE 22:28:50 10° N
Meteor 2-1 Rocket 4.3 22:20:25 14° SSW 22:25:29 75° WNW 22:31:08 10° N
Cosmos 2369 Rocket 2.1 22:20:28 10° SSW 22:26:06 88° ESE 22:31:46 10° NNE
Landsat 7 4.3 22:27:16 45° NE 22:27:16 45° NE 22:31:28 10° N
H-2A R/B 2.2 22:26:40 56° E 22:27:01 58° ENE 22:32:09 10° N
USA 245 4.4 22:25:13 48° SSE 22:27:06 89° ENE 22:33:34 10° NNW
Sich 1 3.0 22:23:11 10° N 22:27:25 77° NE 22:27:25 77° NE
USA 215 3.3 22:21:53 10° ENE 22:28:15 52° SE 22:34:34 10° SSW
ISS -2.1 22:26:03 10° W 22:28:00 31° WNW 22:28:00 31° WNW
SL-24 R/B - RUBIN 2 4.2 22:23:49 10° NW 22:30:01 68° NE 22:30:52 59° E
Cosmos 1626 3.0 22:27:56 10° NNW 22:31:30 46° W 22:31:30 46° W
Cosmos 1833 4.0 22:26:26 10° NNW 22:32:05 87° ENE 22:32:55 67° SE
Cosmos 1666 Rocket 3.7 22:33:02 10° NNW 22:37:02 72° NW 22:37:02 72° NW
Cosmos 1633 Rocket 3.2 22:33:22 10° N 22:37:20 70° N 22:37:20 70° N
Cosmos 2227 Rocket 3.8 22:34:44 10° N 22:39:04 22° NE 22:39:57 21° NE
Lacrosse 5 3.4 22:35:22 10° WNW 22:39:56 32° N 22:42:15 22° NE
Terra 2.6 22:43:00 41° NE 22:43:00 41° NE 22:46:43 10° N
Cosmos 1943 Rocket 2.4 22:44:40 53° ENE 22:44:40 53° ENE 22:49:07 10° NNE
Cosmos 2221 3.4 22:42:58 40° WSW 22:43:57 49° WNW 22:48:15 10° N
SPOT 5 3.4 22:43:05 51° SSW 22:44:10 62° WSW 22:49:25 10° NNW
ATLAS 5 CENTAUR R/B 3.8 22:42:36 10° W 22:46:57 29° NNW 22:51:41 10° NNE
Nimbus 7 Rocket 4.2 22:41:23 10° NNE 22:47:17 78° ESE 22:47:45 72° SSE
Cosmos 2263 4.1 22:47:34 49° SSW 22:49:12 86° WNW 22:54:55 10° NNE
Meteor 2-12 Rocket 4.2 22:49:19 73° SE 22:49:44 77° E 22:55:48 10° NNE
CZ-4C R/B 2.2 22:44:29 10° SW 22:49:54 84° NW 22:56:09 10° NE
Cosmos 1464 Rocket 3.9 22:53:03 66° E 22:53:03 66° E 22:59:11 10° NNE
Gblst 52 Del rocket 4.2 22:51:37 10° WSW 22:56:37 67° SW 22:56:37 67° SW
Meteor 2-3 Rocket 4.5 22:55:07 10° N 22:59:32 39° NE 22:59:32 39° NE
H-2A R/B 3.2 23:02:10 39° NNW 23:02:10 39° NNW 23:04:48 10° NNW
USA 267 3.1 23:02:10 69° ESE 23:03:04 86° NNE 23:09:39 10° NW
Cosmos 407 Rocket 3.6 22:57:45 10° NNW 23:02:28 70° N 23:02:28 70° N
SPOT 1/Viking Rocket 4.1 23:11:18 51° WSW 23:11:21 51° W 23:16:28 10° NNW
Cosmos 2034 Rocket 4.1 23:12:35 62° NE 23:12:35 62° NE 23:18:01 10° NNE
ARGOS 4.1 23:12:58 38° WSW 23:13:38 40° W 23:18:41 10° NNW
Cosmos 2219 3.4 23:17:34 10° NNW 23:22:24 66° NNW 23:22:24 66° NNW
Cosmos 1513 Rocket 4.5 23:25:45 75° N 23:25:45 75° N 23:31:19 10° N
Cosmos 1140 Rocket 4.3 23:23:31 10° NNW 23:27:22 46° N 23:27:22 46° N
Cosmos 1092 Rocket 4.3 23:30:42 10° N 23:35:57 60° NNE 23:35:57 60° NNE
CZ-3B DEB 3.6 23:34:45 10° WNW 23:37:23 23° NW 23:37:23 23° NW
Nadezhda 4 Rocket 4.3 23:46:44 10° NNW 23:52:01 61° NW 23:52:01 61° NW
